GW0451 Weather Reports


Display with metric or nautical units.
time (UTC)temp
F
wind
direction
speed
MPH
gust
MPH
rain 1hr
in
rain 24hr
in
rain mn
in
humidity
%
barometer
mb
20260506024038 60 296 0.0 2.0 0.00 0.00 0.00 72 1008.1
20260506023539 61 0 0.0 2.0 0.00 0.00 0.00 71 1008.2
20260506023057 61 0 0.0 1.0 0.00 0.00 0.00 70 1008.2
20260506022538 62 0 0.0 0.0 0.00 0.00 0.00 69 1008.2
20260506022037 62 0 0.0 0.0 0.00 0.00 0.00 69 1008.4
20260506021600 62 0 0.0 0.0 0.00 0.00 0.00 69 1008.2
20260506021039 63 0 0.0 0.0 0.00 0.00 0.00 68 1008.3
20260506020536 63 0 0.0 0.0 0.00 0.00 0.00 67 1008.3
20260506020048 64 0 0.0 1.0 0.00 0.00 0.00 67 1008.2
20260506015538 64 0 0.0 1.0 0.00 0.00 0.00 66 1008.2
20260506015042 65 0 0.0 2.0 0.00 0.00 0.00 65 1008.2
20260506014558 65 0 0.0 2.0 0.00 0.00 0.00 64 1008.1
20260506014037 66 204 0.0 0.0 0.00 0.00 0.00 63 1008.2
20260506013537 67 0 0.0 0.0 0.00 0.00 0.00 62 1008.1
20260506013054 67 0 0.0 2.0 0.00 0.00 0.00 61 1008.2
20260506012537 67 0 0.0 2.0 0.00 0.00 0.00 60 1008.0
20260506012036 68 0 0.0 2.0 0.00 0.00 0.00 59 1007.9
20260506011552 69 0 0.0 1.0 0.00 0.00 0.00 58 1008.0
20260506011037 69 0 0.0 1.0 0.00 0.00 0.00 56 1007.9
20260506010539 70 0 0.0 1.0 0.00 0.00 0.00 55 1007.9
20260506010056 71 0 0.0 1.0 0.00 0.00 0.00 53 1007.8
20260506005537 71 0 0.0 1.0 0.00 0.00 0.00 53 1007.7
20260506005038 72 0 0.0 1.0 0.00 0.00 0.00 52 1007.7
20260506004553 72 0 0.0 1.0 0.00 0.00 0.00 52 1007.6
20260506004036 73 0 0.0 1.0 0.00 0.00 0.00 50 1007.6
20260506003537 73 0 0.0 2.0 0.00 0.00 0.00 49 1007.5
20260506003049 74 0 0.0 2.0 0.00 0.00 0.00 47 1007.4
20260506002538 74 0 0.0 0.0 0.00 0.00 0.00 46 1007.4
20260506002037 75 0 0.0 0.0 0.00 0.00 0.00 45 1007.3
20260506001552 75 0 0.0 1.0 0.00 0.00 0.00 46 1007.3
20260506001037 75 0 0.0 2.0 0.00 0.00 0.00 44 1007.3
20260506000537 76 0 0.0 2.0 0.00 0.00 0.00 43 1007.2
20260506000059 76 0 1.0 2.0 0.00 0.00 0.00 42 1007.2
20260505235537 76 0 0.0 10.0 0.00 0.00 0.00 42 1007.1
20260505235038 76 265 0.0 10.0 0.00 0.00 0.00 41 1007.0
20260505234551 77 0 2.0 10.0 0.00 0.00 0.00 40 1007.0
20260505234036 77 257 1.0 10.0 0.00 0.00 0.00 40 1006.9
20260505233537 77 307 1.0 12.0 0.00 0.00 0.00 39 1006.9
20260505233057 78 264 2.0 12.0 0.00 0.00 0.00 38 1006.8
20260505232536 78 227 5.0 12.0 0.00 0.00 0.00 37 1006.7
20260505232037 78 205 2.0 14.0 0.00 0.00 0.00 38 1006.5
20260505231545 78 279 4.0 14.0 0.00 0.00 0.00 37 1006.4
20260505231039 78 205 4.0 14.0 0.00 0.00 0.00 37 1006.3
20260505230636 78 223 3.0 14.0 0.00 0.00 0.00 37 1006.4
20260505230051 78 188 5.0 14.0 0.00 0.00 0.00 37 1006.3
20260505225540 78 204 3.0 12.0 0.00 0.00 0.00 37 1006.4
20260505225041 78 172 4.0 12.0 0.00 0.00 0.00 37 1006.2
20260505224549 78 220 4.0 12.0 0.00 0.00 0.00 37 1006.2
20260505224040 78 223 3.0 15.0 0.00 0.00 0.00 37 1006.2
20260505223539 78 194 5.0 15.0 0.00 0.00 0.00 37 1006.3
20260505223050 78 240 5.0 15.0 0.00 0.00 0.00 37 1006.3
20260505222536 78 202 4.0 12.0 0.00 0.00 0.00 37 1006.4
20260505222037 78 205 4.0 9.0 0.00 0.00 0.00 37 1006.5
20260505221546 78 182 3.0 10.0 0.00 0.00 0.00 38 1006.5
20260505221038 78 165 4.0 11.0 0.00 0.00 0.00 37 1006.5
20260505220537 78 192 4.0 11.0 0.00 0.00 0.00 37 1006.4
20260505220050 78 169 3.0 10.0 0.00 0.00 0.00 37 1006.3
20260505215538 78 219 3.0 12.0 0.00 0.00 0.00 37 1006.2
20260505215038 78 167 2.0 13.0 0.00 0.00 0.00 38 1006.2
20260505214544 79 209 4.0 13.0 0.00 0.00 0.00 37 1006.1
20260505214036 79 161 3.0 11.0 0.00 0.00 0.00 37 1006.1
20260505213537 79 167 4.0 13.0 0.00 0.00 0.00 37 1006.1
20260505213048 79 159 3.0 13.0 0.00 0.00 0.00 37 1006.0
20260505212537 79 163 5.0 13.0 0.00 0.00 0.00 37 1006.0
20260505212038 79 242 5.0 13.0 0.00 0.00 0.00 37 1006.1
20260505211546 79 221 5.0 13.0 0.00 0.00 0.00 36 1005.9
20260505211037 79 144 5.0 16.0 0.00 0.00 0.00 36 1006.1
20260505210536 79 187 4.0 16.0 0.00 0.00 0.00 36 1006.0
20260505210049 79 210 5.0 14.0 0.00 0.00 0.00 36 1006.0
20260505205541 79 168 4.0 15.0 0.00 0.00 0.00 36 1006.0
20260505205037 79 108 7.0 16.0 0.00 0.00 0.00 35 1006.0
20260505204548 79 196 7.0 19.0 0.00 0.00 0.00 35 1006.1
20260505204037 80 211 6.0 19.0 0.00 0.00 0.00 35 1005.9
20260505203538 80 167 6.0 14.0 0.00 0.00 0.00 36 1005.9
20260505203050 80 185 5.0 16.0 0.00 0.00 0.00 36 1005.9
20260505202538 80 199 5.0 17.0 0.00 0.00 0.00 35 1005.9
20260505202037 80 119 7.0 18.0 0.00 0.00 0.00 34 1006.0
20260505201553 80 198 8.0 21.0 0.00 0.00 0.00 34 1006.0
20260505201037 81 192 9.0 21.0 0.00 0.00 0.00 33 1005.9
20260505200539 81 198 10.0 19.0 0.00 0.00 0.00 32 1006.1
20260505200048 81 201 8.0 15.0 0.00 0.00 0.00 34 1006.1
20260505195540 81 206 6.0 15.0 0.00 0.00 0.00 34 1006.1
20260505195038 81 162 5.0 25.0 0.00 0.00 0.00 34 1006.3
20260505194557 81 215 10.0 25.0 0.00 0.00 0.00 33 1006.2
20260505194038 82 209 7.0 20.0 0.00 0.00 0.00 35 1006.2
20260505193537 82 163 7.0 21.0 0.00 0.00 0.00 34 1006.3
20260505193104 81 176 5.0 21.0 0.00 0.00 0.00 34 1006.4
20260505192619 81 265 8.0 22.0 0.00 0.00 0.00 34 1006.2
20260505192038 81 279 10.0 22.0 0.00 0.00 0.00 33 1006.2
20260505191544 81 194 10.0 21.0 0.00 0.00 0.00 34 1006.5
20260505191038 81 164 11.0 21.0 0.00 0.00 0.00 34 1006.2
20260505190536 81 202 9.0 19.0 0.00 0.00 0.00 35 1006.4
20260505190053 81 235 8.0 19.0 0.00 0.00 0.00 35 1006.4
20260505185537 81 261 5.0 17.0 0.00 0.00 0.00 35 1006.8
20260505185038 80 176 5.0 17.0 0.00 0.00 0.00 37 1006.8
20260505184552 80 215 6.0 17.0 0.00 0.00 0.00 38 1006.8
20260505184043 79 257 4.0 17.0 0.00 0.00 0.00 39 1006.8
20260505183536 79 205 6.0 15.0 0.00 0.00 0.00 39 1007.1
20260505183044 78 212 5.0 13.0 0.00 0.00 0.00 40 1007.2
20260505182538 78 213 4.0 12.0 0.00 0.00 0.00 40 1007.3
20260505182038 78 235 6.0 14.0 0.00 0.00 0.00 40 1007.4
20260505181548 78 218 6.0 18.0 0.00 0.00 0.00 40 1007.6
20260505181038 78 216 6.0 18.0 0.00 0.00 0.00 41 1007.7
20260505180538 78 186 7.0 14.0 0.00 0.00 0.00 41 1007.7
20260505180053 78 118 6.0 14.0 0.00 0.00 0.00 40 1007.6
20260505175537 78 198 6.0 14.0 0.00 0.00 0.00 41 1007.8
20260505175039 78 159 5.0 21.0 0.00 0.00 0.00 41 1007.7
20260505174546 78 229 6.0 21.0 0.00 0.00 0.00 41 1007.7
20260505174037 79 181 7.0 20.0 0.00 0.00 0.00 39 1007.6
20260505173536 79 170 8.0 20.0 0.00 0.00 0.00 40 1007.7
20260505173048 79 221 7.0 13.0 0.00 0.00 0.00 39 1007.6
20260505172536 79 195 8.0 13.0 0.00 0.00 0.00 40 1007.5
20260505172038 79 175 5.0 16.0 0.00 0.00 0.00 41 1007.5
20260505171550 79 222 4.0 16.0 0.00 0.00 0.00 40 1007.7
20260505171037 79 186 7.0 16.0 0.00 0.00 0.00 40 1007.8
20260505170536 79 304 6.0 17.0 0.00 0.00 0.00 41 1007.8
20260505170050 79 237 5.0 17.0 0.00 0.00 0.00 42 1007.8
20260505165538 78 165 5.0 17.0 0.00 0.00 0.00 42 1007.8
20260505165037 78 218 8.0 17.0 0.00 0.00 0.00 41 1008.2
20260505164549 78 237 7.0 19.0 0.00 0.00 0.00 42 1008.3
20260505164039 78 190 6.0 19.0 0.00 0.00 0.00 42 1008.3
20260505163537 78 219 7.0 20.0 0.00 0.00 0.00 42 1008.5
20260505163045 77 214 8.0 20.0 0.00 0.00 0.00 42 1008.6
20260505162538 77 182 6.0 15.0 0.00 0.00 0.00 43 1008.6
20260505162038 77 205 6.0 15.0 0.00 0.00 0.00 44 1008.7
20260505161625 77 211 6.0 16.0 0.00 0.00 0.00 44 1008.7
20260505161039 77 241 3.0 16.0 0.00 0.00 0.00 45 1008.6
20260505160538 77 182 4.0 13.0 0.00 0.00 0.00 46 1008.8
20260505153056 75 210 5.0 16.0 0.00 0.00 0.00 46 1009.2
20260505152537 75 177 6.0 15.0 0.00 0.00 0.00 46 1009.1
20260505152037 75 208 5.0 10.0 0.00 0.00 0.00 46 1009.1
20260505151551 75 210 5.0 10.0 0.00 0.00 0.00 47 1009.1
20260505151039 74 226 4.0 12.0 0.00 0.00 0.00 47 1009.2
20260505150537 74 176 3.0 12.0 0.00 0.00 0.00 47 1009.0
20260505140537 72 210 4.0 15.0 0.00 0.00 0.00 50 1009.3
20260505125040 68 169 4.0 12.0 0.00 0.00 0.00 54 1009.6
20260505124603 68 175 4.0 13.0 0.00 0.00 0.00 53 1009.6
20260505124040 68 233 4.0 13.0 0.00 0.00 0.00 54 1009.6
20260505123543 68 237 5.0 12.0 0.00 0.00 0.00 54 1009.7
20260505123104 68 146 4.0 13.0 0.00 0.00 0.00 54 1009.7
20260505122540 67 228 5.0 13.0 0.00 0.00 0.00 54 1009.6
20260505122041 67 207 2.0 10.0 0.00 0.00 0.00 56 1009.7
20260505121553 67 155 2.0 7.0 0.00 0.00 0.00 56 1009.6
20260505121042 67 234 2.0 7.0 0.00 0.00 0.00 56 1009.6
20260505120540 66 180 2.0 6.0 0.00 0.00 0.00 57 1009.4
20260505120100 66 0 1.0 6.0 0.00 0.00 0.00 57 1009.3
20260505115540 65 217 1.0 6.0 0.00 0.00 0.00 58 1009.4
20260505115038 65 241 1.0 8.0 0.00 0.00 0.00 58 1009.4
20260505114553 65 209 2.0 8.0 0.00 0.00 0.00 58 1009.5
20260505114040 65 314 2.0 8.0 0.00 0.00 0.00 58 1009.4
20260505113545 65 217 3.0 8.0 0.00 0.00 0.00 58 1009.4
20260505113054 65 229 2.0 8.0 0.00 0.00 0.00 58 1009.3
20260505112541 64 202 3.0 8.0 0.00 0.00 0.00 59 1009.2
20260505112041 64 169 4.0 8.0 0.00 0.00 0.00 59 1009.4
20260505111546 64 0 2.0 10.0 0.00 0.00 0.00 59 1009.3
20260505111040 64 162 4.0 13.0 0.00 0.00 0.00 59 1009.0
20260505110540 64 196 4.0 13.0 0.00 0.00 0.00 59 1009.1
20260505102042 62 0 1.0 8.0 0.00 0.00 0.00 62 1008.9
20260505101548 62 198 1.0 8.0 0.00 0.00 0.00 62 1008.7
20260505101040 61 200 2.0 8.0 0.00 0.00 0.00 63 1008.5
20260505100624 61 164 2.0 11.0 0.00 0.00 0.00 64 1008.7
20260505100053 60 153 3.0 11.0 0.00 0.00 0.00 65 1008.6
20260505095539 60 159 3.0 10.0 0.00 0.00 0.00 66 1008.6
20260505095039 59 231 1.0 4.0 0.00 0.00 0.00 67 1008.6
20260505094549 59 225 0.0 4.0 0.00 0.00 0.00 67 1008.6
20260505094040 60 0 1.0 5.0 0.00 0.00 0.00 67 1008.5
20260505093539 60 119 1.0 5.0 0.00 0.00 0.00 66 1008.5
20260505093045 60 0 0.0 3.0 0.00 0.00 0.00 66 1008.6
20260505092540 60 0 1.0 3.0 0.00 0.00 0.00 65 1008.5
20260505092039 61 119 0.0 3.0 0.00 0.00 0.00 64 1008.5
20260505091613 61 0 0.0 4.0 0.00 0.00 0.00 64 1008.4
20260505091040 61 0 0.0 4.0 0.00 0.00 0.00 63 1008.4
20260505090541 62 0 0.0 3.0 0.00 0.00 0.00 62 1008.4
20260505090104 62 0 0.0 1.0 0.00 0.00 0.00 62 1008.5
20260505085540 63 0 0.0 4.0 0.00 0.00 0.00 62 1008.5
20260505085040 63 0 1.0 4.0 0.00 0.00 0.00 61 1008.5
20260505084602 63 0 0.0 3.0 0.00 0.00 0.00 61 1008.4
20260505084039 63 148 0.0 8.0 0.00 0.00 0.00 60 1008.3
20260505083539 63 0 1.0 8.0 0.00 0.00 0.00 60 1008.3
20260505083104 63 138 2.0 8.0 0.00 0.00 0.00 60 1008.3
20260505082539 63 160 2.0 8.0 0.00 0.00 0.00 60 1008.4
20260505082040 63 153 1.0 6.0 0.00 0.00 0.00 60 1008.3
20260505081558 64 0 2.0 6.0 0.00 0.00 0.00 60 1008.2
20260505081040 63 180 2.0 6.0 0.00 0.00 0.00 60 1008.2
20260505080539 64 172 1.0 8.0 0.00 0.00 0.00 60 1008.3
20260505080057 64 0 2.0 8.0 0.00 0.00 0.00 60 1008.2
20260505075539 64 180 1.0 5.0 0.00 0.00 0.00 61 1008.2
20260505075037 64 227 1.0 5.0 0.00 0.00 0.00 61 1008.1
20260505074545 64 192 1.0 4.0 0.00 0.00 0.00 61 1008.0
20260505074039 64 0 0.0 3.0 0.00 0.00 0.00 60 1008.0
20260505073539 64 238 1.0 7.0 0.00 0.00 0.00 60 1008.0
20260505073053 64 275 0.0 10.0 0.00 0.00 0.00 60 1008.0
20260505072540 64 201 3.0 11.0 0.00 0.00 0.00 59 1007.8
20260505072039 64 179 5.0 11.0 0.00 0.00 0.00 59 1007.9
20260505071549 64 189 2.0 8.0 0.00 0.00 0.00 59 1008.2
20260505071042 64 138 1.0 8.0 0.00 0.00 0.00 57 1008.1
20260505070540 64 0 0.0 4.0 0.00 0.00 0.00 56 1008.2
20260505070052 65 0 0.0 5.0 0.00 0.00 0.00 56 1008.1
20260505065540 65 145 0.0 5.0 0.00 0.00 0.00 55 1008.1
20260505065040 65 227 1.0 5.0 0.00 0.00 0.00 55 1008.0
20260505064603 65 0 0.0 8.0 0.00 0.00 0.00 55 1008.1
20260505064040 65 205 1.0 10.0 0.00 0.00 0.00 55 1008.2
20260505063540 65 169 2.0 10.0 0.00 0.00 0.00 55 1008.2
20260505063052 65 157 1.0 7.0 0.00 0.00 0.00 54 1008.2
20260505062540 65 211 1.0 7.0 0.00 0.00 0.00 54 1008.2
20260505062041 65 235 1.0 6.0 0.00 0.00 0.00 54 1008.3
20260505061556 65 252 2.0 10.0 0.00 0.00 0.00 54 1008.3
20260505061041 65 219 3.0 12.0 0.00 0.00 0.00 53 1008.3
20260505060538 65 152 2.0 12.0 0.00 0.00 0.00 53 1008.3
20260505060100 65 229 3.0 7.0 0.00 0.00 0.00 53 1008.4
20260505055540 65 191 1.0 5.0 0.00 0.00 0.00 54 1008.4
20260505055040 65 0 1.0 6.0 0.00 0.00 0.00 53 1008.3
20260505054554 65 246 2.0 6.0 0.00 0.00 0.00 53 1008.4
20260505054040 65 207 1.0 8.0 0.00 0.00 0.00 53 1008.5
20260505053539 65 0 1.0 9.0 0.00 0.00 0.00 53 1008.5
20260505053052 65 244 1.0 10.0 0.00 0.00 0.00 53 1008.5
20260505052539 65 213 3.0 10.0 0.00 0.00 0.00 53 1008.5
20260505052040 65 227 1.0 9.0 0.00 0.00 0.00 52 1008.5
20260505051549 65 201 3.0 9.0 0.00 0.00 0.00 52 1008.5
20260505051038 65 209 2.0 7.0 0.00 0.00 0.00 52 1008.5
20260505050540 65 203 1.0 9.0 0.00 0.00 0.00 52 1008.6
20260505041554 65 178 5.0 15.0 0.00 0.00 0.00 49 1008.1
20260505041041 65 148 5.0 15.0 0.00 0.00 0.00 48 1008.0
20260505040541 65 165 4.0 10.0 0.00 0.00 0.00 48 1008.0
20260505040049 65 157 5.0 15.0 0.00 0.00 0.00 48 1008.0
20260505035542 65 206 6.0 15.0 0.00 0.00 0.00 48 1008.0
20260505035042 66 147 3.0 12.0 0.00 0.00 0.00 48 1008.0
20260505034550 66 186 6.0 12.0 0.00 0.00 0.00 47 1007.8
20260505034040 66 143 3.0 10.0 0.00 0.00 0.00 47 1007.9
20260505033540 66 182 4.0 12.0 0.00 0.00 0.00 46 1007.9
20260505033044 66 175 5.0 12.0 0.00 0.00 0.00 47 1007.9
20260505032538 66 0 2.0 12.0 0.00 0.00 0.00 46 1008.0
20260505032039 66 135 4.0 13.0 0.00 0.00 0.00 46 1008.0
20260505031552 66 172 6.0 13.0 0.00 0.00 0.00 46 1007.9
20260505031040 66 205 4.0 11.0 0.00 0.00 0.00 46 1008.0
20260505030540 66 193 3.0 15.0 0.00 0.00 0.00 46 1008.0
20260505030109 66 205 4.0 15.0 0.00 0.00 0.00 46 1007.9
20260505025539 66 180 2.0 7.0 0.00 0.00 0.00 46 1007.9
20260505025040 66 51 0.0 9.0 0.00 0.00 0.00 46 1007.8
20260505024551 66 149 4.0 14.0 0.00 0.00 0.00 45 1008.0